| time (UTC) | temp C | wind direction | speed KPH | gust KPH | rain 1hr cm | rain 24hr cm | rain mn cm | humidity % | barometer mb |
| 20260507030706 | 7 | 136 | 0.0 | 1.6 | 0.00 | 0.00 | 0.00 | 81 | 1004.6 |
| 20260507030206 | 7 | 136 | 0.0 | 1.6 | 0.00 | 0.00 | 0.00 | 81 | 1004.6 |
| 20260507023705 | 7 | 136 | 0.0 | 1.6 | 0.00 | 0.00 | 0.00 | 80 | 1004.7 |
| 20260507023205 | 7 | 136 | 0.0 | 3.2 | 0.00 | 0.00 | 0.00 | 80 | 1004.7 |
| 20260507020705 | 7 | 136 | 0.0 | 0.0 | 0.00 | 0.00 | 0.00 | 79 | 1004.8 |
| 20260507020205 | 7 | 136 | 0.0 | 3.2 | 0.00 | 0.00 | 0.00 | 78 | 1004.9 |
| 20260507013705 | 7 | 137 | 0.0 | 1.6 | 0.00 | 0.00 | 0.00 | 77 | 1005.0 |
| 20260507013205 | 7 | 137 | 0.0 | 3.2 | 0.00 | 0.00 | 0.00 | 77 | 1005.0 |
| 20260507010705 | 8 | 71 | 0.0 | 1.6 | 0.00 | 0.00 | 0.00 | 75 | 1004.9 |
| 20260507010206 | 8 | 71 | 0.0 | 4.8 | 0.00 | 0.00 | 0.00 | 75 | 1004.8 |
| 20260507003206 | 8 | 168 | 0.0 | 8.0 | 0.00 | 0.00 | 0.00 | 73 | 1004.5 |
| 20260507000705 | 9 | 103 | 1.6 | 3.2 | 0.00 | 0.00 | 0.00 | 72 | 1004.1 |
| 20260507000205 | 9 | 137 | 0.0 | 4.8 | 0.00 | 0.00 | 0.00 | 72 | 1004.0 |
| 20260506233705 | 10 | 120 | 1.6 | 3.2 | 0.00 | 0.00 | 0.00 | 70 | 1003.8 |
| 20260506230705 | 10 | 128 | 0.0 | 3.2 | 0.00 | 0.00 | 0.00 | 68 | 1003.7 |
| 20260506230205 | 10 | 129 | 1.6 | 14.5 | 0.00 | 0.00 | 0.00 | 67 | 1003.7 |
| 20260506223705 | 10 | 0 | 3.2 | 4.8 | 0.00 | 0.00 | 0.00 | 68 | 1003.7 |
| 20260506223205 | 11 | 3 | 0.0 | 4.8 | 0.00 | 0.00 | 0.00 | 67 | 1003.6 |
| 20260506220705 | 11 | 230 | 1.6 | 4.8 | 0.00 | 0.00 | 0.00 | 66 | 1003.7 |
| 20260506213705 | 11 | 154 | 3.2 | 4.8 | 0.00 | 0.00 | 0.00 | 63 | 1003.5 |
| 20260506210705 | 11 | 131 | 3.2 | 11.3 | 0.00 | 0.00 | 0.00 | 65 | 1003.6 |
| 20260506203205 | 11 | 121 | 3.2 | 14.5 | 0.00 | 0.00 | 0.00 | 64 | 1003.5 |
| 20260506200206 | 12 | 37 | 3.2 | 20.9 | 0.00 | 0.00 | 0.00 | 62 | 1003.5 |
| 20260506193205 | 13 | 182 | 3.2 | 19.3 | 0.00 | 0.00 | 0.00 | 57 | 1003.5 |
| 20260506190705 | 13 | 31 | 3.2 | 12.9 | 0.00 | 0.00 | 0.00 | 56 | 1003.5 |
| 20260506190205 | 12 | 196 | 4.8 | 14.5 | 0.00 | 0.00 | 0.00 | 56 | 1003.4 |
| 20260506180705 | 11 | 329 | 8.0 | 16.1 | 0.00 | 0.05 | 0.00 | 48 | 1003.7 |
| 20260506173704 | 11 | 314 | 6.4 | 12.9 | 0.00 | 0.10 | 0.00 | 47 | 1003.9 |
| 20260506173204 | 11 | 306 | 1.6 | 8.0 | 0.00 | 0.10 | 0.00 | 47 | 1004.0 |
| 20260506170706 | 11 | 274 | 3.2 | 4.8 | 0.00 | 0.10 | 0.00 | 47 | 1004.1 |
| 20260506170206 | 11 | 146 | 1.6 | 12.9 | 0.00 | 0.10 | 0.00 | 47 | 1004.1 |
| 20260506163706 | 10 | 310 | 3.2 | 8.0 | 0.00 | 0.10 | 0.00 | 48 | 1004.4 |
| 20260506163205 | 10 | 178 | 1.6 | 4.8 | 0.00 | 0.10 | 0.00 | 49 | 1004.4 |
| 20260506160706 | 10 | 289 | 1.6 | 4.8 | 0.00 | 0.10 | 0.00 | 51 | 1004.9 |
| 20260506153706 | 9 | 354 | 1.6 | 4.8 | 0.00 | 0.10 | 0.00 | 56 | 1005.3 |
| 20260506153206 | 9 | 315 | 3.2 | 4.8 | 0.00 | 0.10 | 0.00 | 54 | 1005.4 |
| 20260506150706 | 8 | 0 | 1.6 | 4.8 | 0.00 | 0.10 | 0.00 | 58 | 1005.6 |
| 20260506150205 | 8 | 0 | 1.6 | 4.8 | 0.00 | 0.10 | 0.00 | 60 | 1005.6 |
| 20260506143706 | 8 | 0 | 1.6 | 3.2 | 0.00 | 0.10 | 0.00 | 59 | 1005.4 |
| 20260506143206 | 8 | 0 | 3.2 | 4.8 | 0.00 | 0.10 | 0.00 | 58 | 1005.5 |
| 20260506140706 | 7 | 340 | 1.6 | 1.6 | 0.00 | 0.10 | 0.00 | 60 | 1005.3 |
| 20260506140206 | 7 | 341 | 1.6 | 4.8 | 0.00 | 0.13 | 0.00 | 63 | 1005.4 |
| 20260506133706 | 7 | 327 | 1.6 | 4.8 | 0.00 | 0.15 | 0.00 | 72 | 1005.5 |
| 20260506133206 | 7 | 260 | 1.6 | 4.8 | 0.00 | 0.18 | 0.00 | 72 | 1005.5 |
| 20260506130706 | 6 | 0 | 0.0 | 3.2 | 0.00 | 0.20 | 0.00 | 76 | 1005.4 |
| 20260506130205 | 6 | 0 | 1.6 | 3.2 | 0.00 | 0.20 | 0.00 | 77 | 1005.5 |
| 20260506123706 | 6 | 0 | 0.0 | 0.0 | 0.00 | 0.20 | 0.00 | 77 | 1005.4 |
| 20260506123205 | 6 | 0 | 0.0 | 1.6 | 0.00 | 0.20 | 0.00 | 76 | 1005.4 |
| 20260506120206 | 6 | 0 | 0.0 | 1.6 | 0.00 | 0.20 | 0.00 | 80 | 1005.6 |
| 20260506113706 | 5 | 0 | 0.0 | 0.0 | 0.00 | 0.20 | 0.00 | 80 | 1005.5 |
| 20260506113206 | 5 | 0 | 0.0 | 0.0 | 0.00 | 0.20 | 0.00 | 80 | 1005.6 |
| 20260506110705 | 5 | 0 | 0.0 | 0.0 | 0.00 | 0.20 | 0.00 | 80 | 1005.6 |
| 20260506110207 | 5 | 0 | 0.0 | 1.6 | 0.00 | 0.20 | 0.00 | 80 | 1005.7 |
| 20260506103705 | 5 | 163 | 0.0 | 0.0 | 0.00 | 0.20 | 0.00 | 75 | 1005.7 |
| 20260506103206 | 5 | 162 | 0.0 | 1.6 | 0.00 | 0.20 | 0.00 | 73 | 1005.7 |
| 20260506100706 | 5 | 162 | 1.6 | 1.6 | 0.00 | 0.20 | 0.00 | 72 | 1005.6 |
| 20260506100205 | 5 | 162 | 0.0 | 3.2 | 0.00 | 0.20 | 0.00 | 71 | 1005.4 |
| 20260506093707 | 5 | 162 | 1.6 | 3.2 | 0.00 | 0.20 | 0.00 | 69 | 1005.5 |
| 20260506093206 | 5 | 162 | 0.0 | 3.2 | 0.00 | 0.20 | 0.00 | 69 | 1005.5 |
| 20260506090705 | 5 | 163 | 1.6 | 3.2 | 0.00 | 0.20 | 0.00 | 68 | 1005.3 |
| 20260506090206 | 6 | 162 | 0.0 | 3.2 | 0.00 | 0.20 | 0.00 | 70 | 1005.4 |
| 20260506083206 | 6 | 163 | 0.0 | 3.2 | 0.00 | 0.20 | 0.00 | 68 | 1005.3 |
| 20260506080206 | 6 | 163 | 0.0 | 3.2 | 0.00 | 0.20 | 0.00 | 68 | 1005.2 |
| 20260506073205 | 6 | 0 | 0.0 | 3.2 | 0.00 | 0.20 | 0.00 | 65 | 1005.2 |
| 20260506070705 | 7 | 0 | 1.6 | 3.2 | 0.00 | 0.20 | 0.00 | 58 | 1005.0 |
| 20260506070206 | 7 | 0 | 1.6 | 3.2 | 0.00 | 0.20 | 0.00 | 61 | 1005.0 |
| 20260506060706 | 7 | 143 | 1.6 | 3.2 | 0.00 | 0.20 | 0.00 | 63 | 1004.9 |
| 20260506050205 | 8 | 70 | 1.6 | 8.0 | 0.00 | 0.20 | 0.00 | 50 | 1004.4 |
| 20260506043205 | 8 | 146 | 1.6 | 4.8 | 0.00 | 0.20 | 0.00 | 51 | 1004.2 |
| 20260506040712 | 9 | 144 | 0.0 | 3.2 | 0.00 | 0.20 | 0.00 | 52 | 1004.1 |
| 20260506040214 | 9 | 166 | 1.6 | 4.8 | 0.00 | 0.20 | 0.00 | 50 | 1004.0 |
| 20260506033715 | 9 | 128 | 0.0 | 1.6 | 0.00 | 0.20 | 0.20 | 50 | 1003.9 |